• In Schweiz
  • Länderverzeichnis
  • Für 7 Tage
  • Wassertemperatur
  • Satellitenkarten
  • Wetterkarte
  • Widgets
  • user-avatar
    Anmelden

    Stündliche Wetter Mulhule

    Heute, 21 Februar, Mittwoch

    Zeit Temperatur Niederschläge Wind Luftdruck Luftfeuchtigkeit
    00:00 +28°C° 0 mm 7 m/S 757 mmHg 73%
    01:00 +27°C° 0 mm 7 m/S 757 mmHg 74%
    02:00 +27°C° 0 mm 6 m/S 757 mmHg 76%
    03:00 +27°C° 0 mm 6 m/S 757 mmHg 78%
    04:00 +27°C° 0 mm 6 m/S 757 mmHg 79%
    05:00 +26°C° 0 mm 6 m/S 757 mmHg 81%
    06:00 +26°C° 0 mm 6 m/S 757 mmHg 82%
    07:00 +27°C° 0 mm 6 m/S 757 mmHg 76%
    08:00 +28°C° 0 mm 7 m/S 758 mmHg 70%
    09:00 +30°C° 0 mm 7 m/S 758 mmHg 63%
    10:00 +32°C° 0 mm 8 m/S 758 mmHg 57%
    11:00 +33°C° 0 mm 8 m/S 757 mmHg 51%
    12:00 +35°C° 0 mm 8 m/S 757 mmHg 45%
    13:00 +35°C° 0 mm 8 m/S 757 mmHg 45%
    14:00 +35°C° 0 mm 8 m/S 756 mmHg 44%
    15:00 +35°C° 0 mm 8 m/S 755 mmHg 43%
    16:00 +34°C° 0 mm 8 m/S 755 mmHg 46%
    17:00 +33°C° 0 mm 8 m/S 755 mmHg 50%
    18:00 +32°C° 0 mm 8 m/S 755 mmHg 53%
    19:00 +31°C° 0 mm 8 m/S 756 mmHg 56%
    20:00 +29°C° 0 mm 8 m/S 756 mmHg 59%
    21:00 +28°C° 0 mm 8 m/S 757 mmHg 62%
    22:00 +28°C° 0 mm 8 m/S 757 mmHg 64%
    23:00 +28°C° 0 mm 8 m/S 757 mmHg 67%

    Morgen, 22 Februar, Donnerstag

    Zeit Temperatur Niederschläge Wind Luftdruck Luftfeuchtigkeit
    00:00 +27°C° 0 mm 8 m/S 757 mmHg 69%
    01:00 +27°C° 0 mm 8 m/S 757 mmHg 71%
    02:00 +27°C° 0 mm 7 m/S 757 mmHg 73%
    03:00 +26°C° 0 mm 7 m/S 756 mmHg 75%
    04:00 +26°C° 0 mm 7 m/S 757 mmHg 77%
    05:00 +26°C° 0 mm 6 m/S 757 mmHg 78%
    06:00 +24°C° 0 mm 6 m/S 757 mmHg 80%
    07:00 +27°C° 0 mm 7 m/S 757 mmHg 72%
    08:00 +28°C° 0 mm 7 m/S 758 mmHg 63%
    09:00 +29°C° 0 mm 8 m/S 758 mmHg 55%
    10:00 +32°C° 0 mm 8 m/S 758 mmHg 49%
    11:00 +33°C° 0 mm 8 m/S 758 mmHg 42%
    12:00 +34°C° 0 mm 8 m/S 757 mmHg 36%
    13:00 +35°C° 0 mm 8 m/S 757 mmHg 35%
    14:00 +35°C° 0 mm 8 m/S 756 mmHg 34%
    15:00 +35°C° 0 mm 8 m/S 755 mmHg 33%
    16:00 +34°C° 0 mm 8 m/S 755 mmHg 36%
    17:00 +33°C° 0 mm 7 m/S 755 mmHg 39%
    18:00 +32°C° 0 mm 7 m/S 755 mmHg 42%
    19:00 +30°C° 0 mm 7 m/S 756 mmHg 47%
    20:00 +29°C° 0 mm 7 m/S 756 mmHg 52%
    21:00 +28°C° 0 mm 6 m/S 757 mmHg 57%
    22:00 +28°C° 0 mm 6 m/S 757 mmHg 59%
    23:00 +27°C° 0 mm 6 m/S 757 mmHg 62%

    übermorgen, 23 Februar, Freitag

    Zeit Temperatur Niederschläge Wind Luftdruck Luftfeuchtigkeit
    00:00 +27°C° 0 mm 6 m/S 757 mmHg 65%
    01:00 +27°C° 0 mm 6 m/S 756 mmHg 67%
    02:00 +26°C° 0 mm 6 m/S 756 mmHg 69%
    03:00 +26°C° 0 mm 5 m/S 756 mmHg 70%
    04:00 +26°C° 0 mm 6 m/S 756 mmHg 71%
    05:00 +24°C° 0 mm 6 m/S 756 mmHg 73%
    06:00 +24°C° 0 mm 6 m/S 756 mmHg 74%
    07:00 +27°C° 0 mm 6 m/S 757 mmHg 67%
    08:00 +28°C° 0 mm 7 m/S 757 mmHg 60%
    09:00 +29°C° 0 mm 7 m/S 758 mmHg 54%
    10:00 +32°C° 0 mm 8 m/S 757 mmHg 48%
    11:00 +33°C° 0 mm 8 m/S 757 mmHg 43%
    12:00 +35°C° 0 mm 8 m/S 757 mmHg 37%
    13:00 +35°C° 0 mm 8 m/S 756 mmHg 36%
    14:00 +35°C° 0 mm 8 m/S 755 mmHg 35%
    15:00 +35°C° 0 mm 8 m/S 754 mmHg 34%
    16:00 +34°C° 0 mm 8 m/S 754 mmHg 39%
    17:00 +33°C° 0 mm 8 m/S 754 mmHg 43%
    18:00 +32°C° 0 mm 7 m/S 754 mmHg 47%
    19:00 +30°C° 0 mm 7 m/S 755 mmHg 50%
    20:00 +29°C° 0 mm 7 m/S 756 mmHg 54%
    21:00 +28°C° 0 mm 7 m/S 756 mmHg 58%
    22:00 +28°C° 0 mm 7 m/S 756 mmHg 61%
    23:00 +28°C° 0 mm 7 m/S 756 mmHg 63%

    24 Februar, Samstag

    Zeit Temperatur Niederschläge Wind Luftdruck Luftfeuchtigkeit
    00:00 +27°C° 0 mm 7 m/S 756 mmHg 66%
    01:00 +27°C° 0 mm 7 m/S 756 mmHg 69%
    02:00 +26°C° 0 mm 7 m/S 755 mmHg 71%
    03:00 +26°C° 0 mm 7 m/S 755 mmHg 74%
    04:00 +26°C° 0 mm 7 m/S 755 mmHg 77%
    05:00 +26°C° 0 mm 7 m/S 756 mmHg 79%
    06:00 +24°C° 0 mm 7 m/S 756 mmHg 82%
    07:00 +27°C° 0 mm 7 m/S 757 mmHg 74%
    08:00 +28°C° 0 mm 8 m/S 757 mmHg 67%
    09:00 +29°C° 0 mm 8 m/S 758 mmHg 60%
    10:00 +32°C° 0 mm 9 m/S 757 mmHg 54%
    11:00 +33°C° 0 mm 9 m/S 757 mmHg 47%
    12:00 +35°C° 0 mm 9 m/S 756 mmHg 41%
    13:00 +35°C° 0 mm 9 m/S 755 mmHg 40%
    14:00 +35°C° 0 mm 9 m/S 755 mmHg 40%
    15:00 +37°C° 0 mm 9 m/S 754 mmHg 39%
    16:00 +35°C° 0 mm 8 m/S 754 mmHg 42%
    17:00 +34°C° 0 mm 8 m/S 754 mmHg 45%
    18:00 +33°C° 0 mm 8 m/S 754 mmHg 48%
    19:00 +32°C° 0 mm 8 m/S 755 mmHg 50%
    20:00 +31°C° 0 mm 8 m/S 755 mmHg 53%
    21:00 +29°C° 0 mm 8 m/S 756 mmHg 56%
    22:00 +29°C° 0 mm 8 m/S 756 mmHg 60%
    23:00 +28°C° 0 mm 8 m/S 756 mmHg 64%

    25 Februar, Sonntag

    Zeit Temperatur Niederschläge Wind Luftdruck Luftfeuchtigkeit
    00:00 +28°C° 0 mm 8 m/S 755 mmHg 68%
    01:00 +28°C° 0 mm 8 m/S 755 mmHg 71%
    02:00 +27°C° 0 mm 8 m/S 755 mmHg 74%
    03:00 +27°C° 0 mm 7 m/S 755 mmHg 77%
    04:00 +27°C° 0 mm 7 m/S 755 mmHg 79%
    05:00 +27°C° 0 mm 7 m/S 755 mmHg 80%
    06:00 +27°C° 0 mm 7 m/S 756 mmHg 82%
    07:00 +28°C° 0 mm 7 m/S 756 mmHg 74%
    08:00 +29°C° 0 mm 8 m/S 757 mmHg 67%
    09:00 +32°C° 0 mm 8 m/S 757 mmHg 59%
    10:00 +33°C° 0 mm 9 m/S 757 mmHg 56%
    11:00 +34°C° 0 mm 9 m/S 756 mmHg 52%
    12:00 +35°C° 0 mm 9 m/S 756 mmHg 49%
    13:00 +35°C° 0 mm 9 m/S 755 mmHg 49%
    14:00 +35°C° 0 mm 9 m/S 755 mmHg 49%
    15:00 +35°C° 0 mm 9 m/S 754 mmHg 49%
    16:00 +34°C° 0 mm 9 m/S 754 mmHg 52%
    17:00 +33°C° 0 mm 8 m/S 754 mmHg 55%
    18:00 +32°C° 0 mm 8 m/S 755 mmHg 58%
    19:00 +31°C° 0 mm 8 m/S 755 mmHg 62%
    20:00 +31°C° 0 mm 8 m/S 756 mmHg 67%
    21:00 +29°C° 0 mm 8 m/S 756 mmHg 71%
    22:00 +29°C° 0 mm 8 m/S 756 mmHg 73%
    23:00 +28°C° 0 mm 8 m/S 756 mmHg 75%

    26 Februar, Montag

    Zeit Temperatur Niederschläge Wind Luftdruck Luftfeuchtigkeit
    00:00 +28°C° 0 mm 7 m/S 756 mmHg 78%
    01:00 +28°C° 0 mm 7 m/S 755 mmHg 79%
    02:00 +27°C° 0 mm 7 m/S 755 mmHg 80%
    03:00 +27°C° 0 mm 7 m/S 755 mmHg 82%
    04:00 +27°C° 0 mm 7 m/S 755 mmHg 83%
    05:00 +27°C° 0 mm 7 m/S 756 mmHg 84%
    06:00 +27°C° 0 mm 7 m/S 756 mmHg 85%
    07:00 +28°C° 0 mm 7 m/S 757 mmHg 78%
    08:00 +29°C° 0 mm 8 m/S 757 mmHg 71%
    09:00 +31°C° 0 mm 8 m/S 757 mmHg 64%
    10:00 +32°C° 0 mm 9 m/S 757 mmHg 60%
    11:00 +33°C° 0 mm 9 m/S 756 mmHg 56%
    12:00 +34°C° 0 mm 9 m/S 756 mmHg 52%
    13:00 +35°C° 0 mm 9 m/S 755 mmHg 51%
    14:00 +35°C° 0 mm 9 m/S 755 mmHg 50%
    15:00 +35°C° 0 mm 9 m/S 754 mmHg 49%
    16:00 +34°C° 0 mm 9 m/S 754 mmHg 52%
    17:00 +33°C° 0 mm 9 m/S 755 mmHg 55%
    18:00 +32°C° 0 mm 9 m/S 755 mmHg 59%
    19:00 +32°C° 0 mm 9 m/S 755 mmHg 62%
    20:00 +31°C° 0 mm 9 m/S 756 mmHg 66%
    21:00 +29°C° 0 mm 9 m/S 756 mmHg 69%
    22:00 +29°C° 0 mm 9 m/S 756 mmHg 71%
    23:00 +29°C° 0 mm 9 m/S 756 mmHg 74%
    Mehr zeigen